Regional Weather Roundup
Issued by NWS Portland, ME

Current Version | Previous Version | Text Only | Print | Product List | Glossary On
Versions: 1 2 3 4 5 6 7 8 9 10 11 12 13 14 15 16 17 18 19 20 21 22 23 24 25 26 27 28 29 30 31 32 33 34 35 36 37 38 39 40 41 42 43 44 45 46 47 48 49 50
000 ASUS41 KGYX 261410 RWRGYX WEATHER ROUNDUP FOR MAINE AND NEW HAMPSHIRE NATIONAL WEATHER SERVICE GRAY ME 1000 AM EDT SUN MAR 26 2017 MEZ002-005-006-010-012-015-018-020-021-024-026-027-029-261500- MAINE CITY SKY/WX TMP DP RH WIND PRES REMARKS PORTLAND MOSUNNY 31 10 41 NE10 30.59R SANFORD SUNNY 33 13 43 NE8 30.58R BAR HARBOR SUNNY 26 5 40 NE8 30.59F WISCASSET SUNNY 32 3 29 VRB5 30.60S ROCKLAND SUNNY 28 10 46 NE13 30.59R WCI 17 FRYEBURG SUNNY 30 6 36 E5 30.56S LEWISTONAUBURN SUNNY 28 6 39 VRB5 30.58R AUGUSTA SUNNY 27 -1 30 N3 30.58R WATERVILLE SUNNY 27 2 34 N7 30.55F BANGOR MOSUNNY 25 2 37 NE9 30.60S GREENVILLE N/A 20 -2 38 NW6 30.48F MILLINOCKET CLOUDY 22 -4 32 W3 30.61R HOULTON SUNNY 18 0 45 N8 30.57R PRESQUE ISLE NOT AVBL FRENCHVILLE SUNNY 14 -3 47 W8 30.52S CARIBOU SUNNY 18 -1 43 NW3 30.56R $$ NHZ002-005-008-009-011-012-014-261500- NEW HAMPSHIRE CITY SKY/WX TMP DP RH WIND PRES REMARKS PORTSMOUTH PTSUNNY 35 18 50 NE7 30.55R ROCHESTER SUNNY 33 12 41 NE9 30.54S NASHUA CLOUDY 34 32 92 NE5 30.56R MANCHESTER CLOUDY 33 17 51 E9 30.54R CONCORD CLOUDY 33 13 43 E9G17 30.55R LACONIA CLOUDY 33 13 43 NE8 30.55S PLYMOUTH FAIR 30 19 62 CALM 30.54F BERLIN CLOUDY 21 7 54 CALM 30.50S WHITEFIELD SUNNY 23 13 65 CALM 30.50S JAFFREY MOSUNNY 32 16 51 VRB3 30.50R KEENE MIX PCPN 32 29 88 CALM 30.53R LEBANON CLOUDY 28 21 75 CALM 30.52F MT WASHINGTON MOSUNNY 23 -4 30 NW20 N/A WCI 8 $$ VTZ005-007-008-261500- VERMONT CITY SKY/WX TMP DP RH WIND PRES REMARKS ST JOHNSBURY N/A 23 12 62 MISG 30.51F MONTPELIER CLOUDY 21 19 92 NE3 30.52F BURLINGTON CLOUDY 31 16 54 CALM 30.50F $$ MAZ007-012-024-CTZ003-RIZ002-NYZ038-NYZ072-261500- SOUTHERN NEW ENGLAND AND NY CITY SKY/WX TMP DP RH WIND PRES REMARKS BOSTON MOSUNNY 39 28 64 E15 30.55R WORCESTER MOSUNNY 32 20 61 E8 30.48S NANTUCKET MOSUNNY 44 33 65 NE20G30 30.49S PROVIDENCE PTSUNNY 40 27 59 NE13 30.52S HARTFORD PTSUNNY 34 27 75 N8 30.52R ALBANY CLOUDY 31 21 66 NE5 30.49F NEW YORK CITY CLOUDY 41 33 73 NE15 30.46R $$ ANZ081-ANZ082-ANZ150-NHZ014-MEZ023>029-261500- COASTAL MARINE OBSERVATIONS STATION/POSITION TIME TEMP WIND PRES WAVE AIR SEA DIR/SP/G HT/PER (UTC) (F) (DEG/KT/KT) (MB) (FT/S) MOUNT DESERT ROC 1400 26 1035.9R MATINICUS ROCK 1300 28 30/ 14/ 16 1034.9R ISLE OF SHOALS 1300 35 50/ 18/ 20 1033.9S JEFFREYS LEDGE 1306 41 N/A 4/ 5 CASHES LEDGE BUO 1350 35 39 1034.8F 4/ 6 GEORGES BANK BUO 1350 37 40 1032.5R 5/ 8 $$ .............KEY.............. WCI - WIND CHILL TC - TEMPERATURE IN CELSIUS VSB - VISIBILITY IN MILES HX - HEAT INDEX FAIR- INDICATES FEW OR NO CLOUDS BELOW 12,000 FT, WITH NO SIGNIFICANT WEATHER AND/OR OBSTRUCTIONS TO VISIBILITY.

USA.gov is the U.S. government's official web portal to all federal, state and local government web resources and services.